Flag for U.S.A. Weather past 2 weeks in South Bend, Indiana, U.S.A.

Now
28 °F

Overcast.


Feels Like: 22 °F
Forecast: 26 / 30 °F
Wind: 6 mph from West

Location: Michiana Regional Airport

Current Time: Dec 18, 2014 at 6:49:27 AM

Latest Report: Dec 18, 2014 at 5:54 AM


Visibility: 10 mi

Pressure: 30.28 "Hg

Humidity: 72%

Dew point: 20 °F

Location of South BendLocation

Historic Weather in South Bend — Graph

°F

South Bend temperature yesterday

Maximum temperature yesterday: 34 °F (at 12:01 AM)
Minimum temperature yesterday: 28 °F (at 8:54 AM)
Average temperature yesterday: 30 °F

Past Weeks' High & Low Weather Summary

 TemperatureHumidityPressure
High54 °F (Dec 14, 2:54 PM)97% (Dec 8, 6:01 PM)30.70 "Hg (Dec 8, 6:01 PM)
Low21 °F (Dec 11, 2:54 AM)50% (Dec 3, 2:54 PM)29.66 "Hg (Dec 16, 5:54 AM)
Average35 °F81%30.23 "Hg
* Reported Dec 3 4:54 AM — Dec 18 4:54 AM, South Bend, Weather by CustomWeather, © 2014

Note: Actual official high and low records may vary slightly from our data, if they occured in-between our weather recording intervals... More about our weather records

Advertising

South Bend weather history for previous 24 hours

 ConditionsComfort  
Time TempWeatherWind HumidityBarometerVisibility
4:54 AM
Dec 18
28 °FOvercast.6 mph72%30.28 "Hg10 mi
3:54 AM28 °FOvercast.7 mph75%30.29 "Hg10 mi
2:54 AM28 °FOvercast.7 mph75%30.29 "Hg10 mi
1:54 AM28 °FOvercast.7 mph72%30.28 "Hg10 mi
12:54 AM29 °FOvercast.7 mph72%30.29 "Hg10 mi
10:54 PM
Dec 17
29 °FOvercast.7 mph69%30.28 "Hg10 mi
9:54 PM29 °FOvercast.7 mph69%30.27 "Hg10 mi
8:54 PM29 °FOvercast.10 mph66%30.27 "Hg10 mi
7:54 PM28 °FMostly cloudy.8 mph75%30.25 "Hg10 mi
6:54 PM29 °FOvercast.9 mph66%30.26 "Hg10 mi
5:54 PM28 °FMostly cloudy.10 mph75%30.24 "Hg10 mi
4:54 PM28 °FOvercast.12 mph72%30.23 "Hg10 mi
3:54 PM28 °FOvercast.14 mph72%30.21 "Hg10 mi
2:54 PM28 °FOvercast.12 mph72%30.20 "Hg10 mi
1:54 PM28 °FOvercast.13 mph75%30.20 "Hg10 mi
12:54 PM28 °FOvercast.13 mph75%30.22 "Hg10 mi
11:54 AM28 °FOvercast.14 mph78%30.23 "Hg10 mi
10:54 AM28 °FOvercast.13 mph78%30.23 "Hg10 mi
9:54 AM29 °FOvercast.14 mph75%30.22 "Hg10 mi
8:54 AM28 °FOvercast.16 mph78%30.21 "Hg10 mi
6:54 AM30 °FOvercast.14 mph75%30.19 "Hg10 mi
Weather by CustomWeather, © 2014

See weather overviewHow to use our weather pages